TITAN 3C TRANSTAGE DEB *, 38697

Orbit data source: Space-Track

TITAN 3C TRANSTAGE DEB *, 38697 is space debris in GEO originally from a launch on Thu, 26 Sep 1968 UTC launched from the Air Force Eastern Test Range (AFETR). Debris objects in space refer to the collection of defunct objects orbiting the Earth. Examples of debris include non-operational satellites, rocket bodies, and fragments generated from explosions, collisions, or faulty payload assembly.

Not visible in the next 10 days
Identifier
38697, 1968-081X
Orbit
GEO
Country
Flag of USUS
Related business
Manufacturer
Unknown
Mission
Spacecraft
Bus & Motor
Unknown
Mass
Unknown
Launch date (UTC)
1968-09-26 (58 years ago)
Launch vehicle
Unknown
Launch site
Air Force Eastern Test Range (AFETR)
Object type
Payload
Rocket body
Debris
Shape & HBR
Unknown shape, 1.1 m
Radar Cross Section
Medium (>0.1 m² and <1 m²)

Expand to show TLE details & history
Last TLE update: 15 hours ago

TLE from 15 hours ago
0 TITAN 3C TRANSTAGE DEB *
1 38697U 68081X   26257.90409192 -.00000411  00000-0  00000-0 0  9999
2 38697   5.6504  43.4926 0749236 101.7137 266.9462  1.01485693 75772
Epoch: 2026-09-14T21:41Z
TLE epoch observation values (Epoch: 2026-09-14T21:41:53.541Z)
Latitude
Longitude
84.27371°
Altitude
35,863.356 km
Speed
3.057 km/s
True Right ascension
02h 54m 29s
True Declination
0° 00' 00"
Sunlit
Object was in daylight at epoch
Visualization orbit readout
Latitude
Unknown
Longitude
Unknown
Altitude
Unknown
Speed
Unknown
Apparent Right ascension
Unknown
Apparent Declination
Unknown
Sunlit
N/A
Visualization observer readout
Local Sidereal Time
05:05:36
Azimuth
Unknown
Elevation
Unknown
Doppler factor
Unknown
Orbital elements
Apogee altitude
38,584.733 km
Perigee altitude
32,316.79 km
Semi-major axis
41,828.898 km
Eccentricity
0.07492
Inclination
5.6504°
RAAN
43.4926°
Arg. of periapsis
101.7137°
True anomaly
258.44661°
Mean anomaly
266.9462°
Eccentric anomaly
262.6883°
Mean motion
0.2537 °/min
Orbital period
1,418.97 mins
BSTAR
0
Loading maneuver chart data...
Computing Atmospheric mass density...

Documentation

Showing up to 5 results
|